SCP
0 0 0 0 0 0 0 0 0 0 0 0 0 0 0 0 0 0 0 1 1 1 1 1 1 1 1 1 1 1 1 0 0 0 0 0 0 0 0 0 0 0 0 0
0 0 0 0 0 0 0 0 0 0 0 0 0 0 0 0 0 0 0 1 1 1 1 1 1 1 1 1 1 0 0 0 0 0 0 0 0 0 0 0 0 0 -0 0
0 0 0 0 0 0 0 0 0 0 0 0 0 0 0 0 0 0 0 1 1 1 1 1 1 1 1 0 0 0 0 0 0 0 0 0 0 0 0 0 0 0 0 0
0 0 0 0 0 0 0 0 0 0 0 0 0 0 0 0 0 0 0 1 1 1 1 1 1 1 0 0 0 0 0 0 0 0 0 0 0 0 0 0 0 0 0 0
0 0 0 0 0 0 0 0 0 0 0 0 0 0 0 0 0 0 0 0 1 1 1 0 0 0 0 0 0 0 0 0 0 0 0 0 0 0 0 0 0 0 0 0
0 0 0 0 0 0 0 0 0 0 0 0 0 0 0 0 0 0 0 0 0 0 0 0 0 0 0 0 0 0 0 0 0 0 0 0 0 0 0 0 0 0 0 0
0 0 0 0 0 0 0 0 0 0 0 0 0 0 0 0 0 0 0 0 0 0 0 0 0 0 0 0 0 0 0 0 0 0 0 0 0 0 0 0 0 0 0 0
0 0 0 0 0 0 0 0 0 0 0 0 0 0 0 0 0 0 0 0 0 0 0 0 0 0 0 0 0 0 0 0 0 0 0 0 0 0 0 0 0 0 0 0
0 0 0 0 0 0 0 0 0 0 0 0 0 0 0 0 0 0 0 0 0 0 0 0 0 0 0 0 0 0 0 0 0 0 0 0 0 0 0 0 0 0 0 0
0 0 0 0 0 0 0 0 0 0 0 0 0 0 0 0 0 0 0 0 0 0 0 0 0 0 0 0 0 0 0 0 0 0 0 0 0 0 0 0 0 0 0 0
0 0 0 0 0 0 0 0 0 0 0 0 0 0 0 0 0 0 0 0 0 0 0 0 0 0 0 0 0 0 0 0 0 0 0 0 0 0 0 0 0 0 0 0
0 0 0 0 0 0 0 0 0 0 0 0 0 0 0 0 0 0 0 0 0 0 0 0 0 0 0 0 0 0 0 0 0 0 0 0 0 0 0 0 0 0 0 0
0 0 0 0 0 0 0 0 0 0 0 0 0 0 0 0 0 0 0 0 0 0 0 0 0 0 0 0 0 0 0 0 0 0 0 0 0 0 0 0 0 0 0 0
0 0 0 0 0 0 0 0 0 0 0 0 0 0 0 0 0 0 0 0 0 0 0 0 0 0 0 0 0 0 0 0 0 0 0 0 0 0 0 0 0 0 0 0
0 0 0 0 0 0 0 0 0 0 0 0 0 0 0 0 0 0 0 0 0 0 0 0 0 0 0 0 0 0 0 0 0 0 0 0 0 0 0 0 0 0 0 0
0 0 0 0 0 0 0 0 0 0 0 0 0 0 0 0 0 0 0 0 0 0 0 0 0 0 0 0 0 0 0 0 0 0 0 0 0 0 0 0 0 0 0 0
0 0 0 0 0 0 0 0 0 0 0 0 0 0 0 0 0 0 0 0 0 0 0 0 0 0 0 0 0 0 0 0 0 0 0 0 0 0 0 0 0 0 0 0
0 0 0 0 0 0 0 0 0 0 0 0 0 0 0 0 0 0 0 0 0 0 0 0 0 0 0 0 0 0 0 0 0 0 0 0 0 0 0 0 0 0 0 0
0 0 0 0 0 0 0 0 0 0 0 0 0 0 0 0 0 0 0 0 0 0 0 0 0 0 0 0 0 0 0 0 0 0 0 0 0 0 0 0 0 0 0 0
0 0 0 0 0 0 0 0 0 0 0 0 0 0 0 0 0 0 0 0 0 0 0 0 0 0 0 0 0 0 0 0 0 0 0 0 0 0 0 0 0 0 0 0
0 0 0 0 0 0 0 0 0 0 0 0 0 0 0 0 0 0 0 0 0 0 0 0 0 0 0 0 0 0 0 0 0 0 0 0 0 0 0 0 0 0 0 0
0 0 0 0 0 0 0 0 0 0 0 0 0 0 0 0 0 0 0 0 0 0 0 0 0 0 0 0 0 0 0 0 0 0 0 0 0 0 0 0 0 0 0 0
0 0 0 0 0 0 0 0 0 0 0 0 0 0 0 0 0 0 0 0 0 0 0 0 0 0 0 0 0 0 0 0 0 0 0 0 0 0 0 0 0 0 0 0
0 0 0 0 0 0 0 0 0 0 0 0 0 0 0 0 0 0 0 0 0 0 0 0 0 0 0 0 0 0 0 0 0 0 0 0 0 0 0 0 0 0 0 0
0 0 0 0 0 0 0 0 0 0 0 0 0 0 0 0 0 0 0 0 0 0 0 0 0 0 0 0 0 0 0 0 0 0 0 0 0 0 0 0 0 0 0 0
0 0 0 0 0 0 0 0 0 0 0 0 0 0 0 0 0 0 0 0 0 0 0 0 0 0 0 0 0 0 0 0 0 0 0 0 0 0 0 0 0 0 0 0
Wind_Speed
3 4 4 7 7 6 3 3 7 8 5 2 6 6 4 5 6 7 7 7 8 8 7 8 9 8 9 9 9 9 9 8 7 6 6 5 4 3 3 3 5 6 6 6
3 5 9 5 4 4 4 4 7 7 3 1 3 5 3 5 6 7 8 8 8 7 7 7 8 8 9 10 10 9 9 8 8 6 5 4 4 3 2 2 4 5 6 6
8 7 4 4 3 3 4 5 6 6 4 2 2 5 2 2 2 3 4 6 7 9 10 10 9 8 8 9 9 9 9 8 7 7 5 5 4 3 2 2 3 4 5 6
6 6 3 4 5 5 6 6 6 4 1 3 2 4 6 3 3 5 6 7 8 8 8 9 9 9 10 9 8 7 8 7 7 8 9 9 6 5 4 3 3 4 5 5
7 5 6 6 7 7 7 2 1 1 2 1 1 1 8 1 5 8 9 9 9 10 10 10 10 10 9 9 8 7 8 7 7 8 9 8 6 4 3 4 5 4 3 4
6 3 5 6 4 4 3 5 5 5 4 1 3 3 8 5 7 7 8 10 10 10 10 9 7 7 6 7 8 8 8 7 8 8 8 8 9 8 7 6 5 4 3 3
4 3 3 2 1 1 3 5 4 5 4 6 2 3 10 7 6 7 9 11 10 10 10 10 10 10 9 9 9 9 9 8 8 8 8 8 9 9 10 8 7 6 4 3
3 6 3 3 5 5 4 8 7 4 5 5 2 6 9 4 3 4 5 7 9 11 11 11 12 11 11 11 10 10 10 8 8 8 8 7 8 6 5 7 6 7 5 4
6 6 3 2 3 7 4 4 5 6 2 2 5 7 10 2 1 2 3 6 10 12 12 11 11 11 11 11 11 11 11 9 9 8 8 7 7 7 6 6 6 5 4 5
8 3 3 2 2 2 4 7 5 5 5 3 5 5 6 6 5 4 5 7 9 10 10 10 11 11 10 9 9 9 9 9 8 8 8 7 7 7 7 7 7 6 6 6
5 4 3 3 1 2 2 3 5 4 4 5 3 8 7 7 6 6 7 7 9 10 11 11 10 10 9 9 9 9 9 8 8 8 7 7 7 7 7 7 7 7 6 7
3 5 1 4 3 1 3 4 7 5 4 4 4 10 6 4 5 5 6 6 7 9 9 10 10 10 10 10 10 10 10 9 9 9 7 7 7 7 7 7 7 7 7 7
5 6 3 5 4 3 1 2 3 4 4 4 5 9 3 2 2 2 4 5 6 7 7 8 9 10 11 11 11 10 10 10 9 9 9 8 7 8 8 8 7 7 7 7
6 5 6 7 6 3 2 2 3 5 4 4 7 8 7 5 4 4 3 4 5 6 8 9 10 11 11 12 12 11 11 10 10 9 9 9 9 9 8 8 8 8 8 8
5 3 3 4 4 3 4 5 5 6 7 7 7 7 9 6 5 4 4 4 5 6 8 10 12 11 11 11 11 11 11 10 10 10 10 10 9 8 8 8 8 7 8 9
3 3 1 2 3 4 4 6 6 7 6 7 6 8 6 4 2 2 3 5 6 8 9 11 11 12 12 13 12 12 11 11 11 11 11 9 9 9 8 8 8 8 7 7
2 4 3 3 3 1 5 6 6 5 4 5 8 7 3 4 4 3 3 4 6 7 8 10 12 13 13 14 13 14 13 11 11 11 10 10 10 10 10 9 9 9 8 7
6 5 3 1 0 5 7 2 2 3 4 4 3 3 3 4 5 3 2 3 3 4 6 7 9 11 11 11 11 11 11 12 12 11 11 11 11 10 9 9 9 8 7 7
4 6 4 3 3 5 4 1 0 1 4 2 2 5 5 5 3 3 2 2 3 3 4 6 7 9 10 11 11 11 11 12 12 12 12 11 11 11 10 11 10 8 7 7
4 3 4 3 3 5 4 2 2 0 4 2 1 4 5 4 2 4 4 5 5 3 2 3 4 5 8 9 11 12 12 12 13 13 12 11 11 11 12 11 9 7 7 7
2 2 2 3 3 5 3 4 2 2 5 3 2 3 3 2 4 4 6 6 5 4 2 1 4 5 6 8 11 12 12 13 12 10 9 10 11 11 10 9 7 7 6 6
3 2 3 3 3 5 3 2 1 4 4 4 4 3 3 3 4 4 5 5 6 5 4 2 3 3 4 7 10 10 9 8 8 8 9 9 10 9 8 8 7 7 7 7
3 4 4 5 5 4 2 3 4 4 4 4 4 3 2 3 3 3 4 4 5 5 5 4 4 4 4 5 8 8 6 6 8 8 8 8 8 7 7 9 8 6 6 6
2 1 1 2 4 4 4 3 4 3 2 3 2 2 1 1 2 3 4 5 6 6 6 5 5 6 5 4 5 5 5 7 8 7 7 6 7 6 5 5 5 5 5 5
3 1 1 2 4 4 4 4 4 4 3 4 4 3 3 3 4 4 5 6 6 7 6 6 6 6 6 6 5 5 5 7 7 6 5 5 5 6 5 4 4 5 4 5
2 2 2 3 3 1 3 4 5 5 5 4 5 6 6 5 6 7 7 7 7 7 7 8 8 8 7 7 7 6 4 6 7 6 5 4 4 4 4 4 3 4 4 5
Wind_Direction
133 108 200 209 195 197 205 245 270 272 270 258 256 259 241 192 188 190 191 185 184 190 181 171 171 168 164 167 169 170 165 166 162 161 162 164 166 160 154 162 156 151 148 150
77 239 227 201 189 193 218 262 275 291 314 208 271 277 237 194 201 195 193 192 188 175 164 167 168 172 173 172 172 169 167 169 169 167 161 150 140 141 146 149 148 151 150 154
188 228 196 182 207 218 243 224 248 264 325 10 350 318 280 233 203 194 194 188 184 181 178 177 174 176 170 173 175 174 170 168 165 155 135 124 106 97 115 139 145 151 152 152
225 244 204 218 232 197 259 236 225 247 291 295 43 295 286 237 230 216 203 189 186 183 177 178 175 175 173 180 176 166 166 166 163 157 157 156 158 159 174 160 145 139 145 146
228 210 190 214 228 188 222 244 182 210 163 320 354 211 284 258 237 232 214 200 190 183 178 178 179 175 173 170 165 162 159 160 161 158 159 159 153 145 134 131 132 131 135 144
235 229 200 210 223 187 177 69 56 50 70 301 242 185 274 235 223 229 210 200 192 182 178 175 171 164 164 163 160 160 159 162 161 159 160 162 157 150 145 146 149 145 137 138
287 272 247 191 159 31 105 90 27 358 6 257 252 213 251 250 227 217 205 197 186 177 174 172 172 173 173 172 169 165 165 164 163 163 165 166 163 162 162 162 161 156 153 156
202 278 249 191 182 184 174 142 158 201 229 273 290 240 256 266 247 231 204 187 178 177 178 179 180 178 179 177 173 169 169 166 166 167 168 163 161 161 163 164 163 166 166 162
180 245 286 227 184 148 144 178 166 141 173 256 277 281 299 270 279 222 184 175 184 185 182 181 178 179 179 178 176 174 171 168 170 170 162 160 162 162 162 161 157 159 157 155
158 215 288 310 79 52 142 145 108 129 156 240 280 273 260 275 259 238 205 195 190 184 181 179 178 180 179 177 172 168 168 171 167 164 168 170 168 167 162 157 161 164 163 155
139 162 309 17 139 192 108 106 111 119 156 167 242 267 231 236 237 223 217 203 191 186 185 182 180 178 173 167 167 167 167 163 165 168 168 163 167 166 163 165 170 169 165 162
123 122 220 273 277 241 161 165 149 156 212 185 188 264 265 245 244 215 208 199 191 190 187 182 175 171 170 171 172 173 173 173 173 169 166 166 165 163 166 172 173 169 169 171
126 109 70 346 344 0 64 145 150 135 130 167 184 261 293 342 304 231 204 193 183 182 180 175 171 174 176 177 177 178 180 180 174 167 167 166 168 171 176 177 173 171 171 171
111 115 159 193 219 221 243 227 170 141 163 209 222 250 289 301 290 274 237 209 185 182 183 181 182 183 182 180 180 181 184 179 173 170 172 176 180 181 180 175 173 175 174 175
98 139 196 225 237 220 228 241 216 204 202 207 236 238 261 268 264 256 227 203 187 189 190 190 189 187 184 181 181 183 184 179 175 175 180 185 181 177 174 174 176 175 179 185
83 140 150 266 250 242 255 255 237 232 227 231 252 265 264 281 285 276 240 205 197 199 198 196 192 187 188 188 186 184 183 181 176 180 186 180 174 175 179 179 176 177 183 182
119 135 137 246 278 314 260 240 227 219 219 206 229 249 300 314 315 309 283 231 211 211 204 198 196 194 192 191 187 186 184 176 178 185 184 179 178 181 184 183 178 184 186 182
140 132 143 192 46 231 244 264 230 216 250 231 243 283 283 271 286 288 280 260 248 224 211 205 203 201 194 188 184 179 174 176 182 186 186 184 182 185 181 180 184 188 184 188
142 141 139 151 211 266 287 300 334 230 267 254 266 297 303 304 315 323 354 339 271 253 233 214 203 199 186 180 175 169 175 180 185 189 190 187 183 182 181 187 190 188 185 194
76 104 128 153 192 235 252 305 324 114 272 259 270 296 311 338 329 297 344 332 317 307 260 226 189 169 173 175 165 170 178 182 191 193 189 183 181 183 187 190 188 181 185 197
50 70 154 184 221 259 282 310 345 187 254 309 293 282 290 256 233 275 316 326 327 329 321 180 146 158 172 164 163 175 181 192 193 183 175 176 180 184 186 182 179 176 182 188
181 172 190 164 209 256 322 346 220 243 287 300 292 276 264 265 279 300 326 341 350 2 8 43 119 130 138 151 160 171 185 185 166 163 171 178 180 181 179 172 175 175 180 189
198 195 192 192 218 255 290 266 280 273 273 283 285 288 259 274 293 322 348 357 2 13 25 41 84 92 98 129 146 159 169 150 148 154 165 171 169 172 171 172 174 175 180 188
294 159 156 262 273 286 297 300 307 303 270 294 313 327 337 309 338 7 19 23 24 25 33 44 70 84 83 97 120 133 129 133 136 150 160 159 159 161 160 161 165 170 176 182
267 221 177 265 289 319 338 339 340 357 20 44 41 38 31 51 46 41 42 40 39 38 37 47 63 75 78 85 86 88 105 123 131 138 140 140 147 151 149 145 151 164 172 181
247 197 186 235 250 240 323 354 23 39 44 49 54 50 45 55 62 60 57 50 49 49 50 56 59 64 66 72 72 64 80 113 122 120 120 126 131 134 138 135 114 83 113 132